Find Starlink 32587

NORAD ID: 62180 Int'l Des: 2024-225 Owner: SPXS Country: US Constellation: starlink operational
LEOCIRCULAR

Live-Position

3D-Globus wird geladen...

Über Starlink 32587

Beschreibung wird geladen...

Nächste Überflüge

Passes for default location (London). Set your location on the main map for personalized predictions.

Höhenverlauf

Loading altitude history...

Zweizeiliger Elementsatz

1 62180U 24225T 26125.41059602 .00007396 00000-0 62678-3 0 9992
2 62180 70.0038 21.2579 0002693 275.0605 85.0247 14.98343510 78377
Epoch: 5. Mai 2026 • Age: 12 hours

Aktueller Status

Höhe 584.5 km
Geschwindigkeit 7.57 km/s
Subsatellitenpunkt 65.65°N, 111.71°W
Startdatum 30. Nov. 2024
Alter 1.4 years
Typ internet

Technische Details

Klassifizierung Payload
Masse 730.00 kg
Trockenmasse 700.00 kg
Gesamtmasse 730.00 kg
Länge 0.30 m
Durchmesser 4.10 m
Spannweite 29.00 m
Form Box + pan
Hersteller SPXS
Bus-Typ Starlink V2M
Phasenstatus In Orbit
Besitzer/Staat SPXS/US

Most Searched